Year,Month,Day,Hour,Minute,Value (Times are PST for temperature in C)
2015,10,05,00,00,7.80
2015,10,05,00,01,7.80
2015,10,05,00,02,7.70
2015,10,05,00,03,7.70
2015,10,05,00,04,7.70
2015,10,05,00,05,7.70
2015,10,05,00,06,7.70
2015,10,05,00,07,7.70
2015,10,05,00,08,7.60
2015,10,05,00,09,7.60
2015,10,05,00,10,7.60
2015,10,05,00,11,7.60
2015,10,05,00,12,7.60
2015,10,05,00,13,7.60
2015,10,05,00,14,7.50
2015,10,05,00,15,7.50
2015,10,05,00,16,7.50
2015,10,05,00,17,7.50
2015,10,05,00,18,7.50
2015,10,05,00,19,7.40
2015,10,05,00,20,7.40
2015,10,05,00,21,7.40
2015,10,05,00,22,7.40
2015,10,05,00,23,7.40
2015,10,05,00,24,7.30
2015,10,05,00,25,7.30
2015,10,05,00,26,7.30
2015,10,05,00,27,7.30
2015,10,05,00,28,7.30
2015,10,05,00,29,7.30
2015,10,05,00,30,7.30
2015,10,05,00,31,7.30
2015,10,05,00,32,7.20
2015,10,05,00,33,7.20
2015,10,05,00,34,7.20
2015,10,05,00,35,7.20
2015,10,05,00,36,7.20
2015,10,05,00,37,7.20
2015,10,05,00,38,7.20
2015,10,05,00,39,7.10
2015,10,05,00,40,7.10
2015,10,05,00,41,7.10
2015,10,05,00,42,7.10
2015,10,05,00,43,7.10
2015,10,05,00,44,7.00
2015,10,05,00,45,7.00
2015,10,05,00,46,7.00
2015,10,05,00,47,7.00
2015,10,05,00,48,7.00
2015,10,05,00,49,7.00
2015,10,05,00,50,6.90
2015,10,05,00,51,6.90
2015,10,05,00,52,6.90
2015,10,05,00,53,6.90
2015,10,05,00,54,6.90
2015,10,05,00,55,6.90
2015,10,05,00,56,6.90
2015,10,05,00,57,6.90
2015,10,05,00,58,6.90
2015,10,05,00,59,6.90
2015,10,05,01,00,6.90
2015,10,05,01,01,6.90
2015,10,05,01,02,6.90
2015,10,05,01,03,6.90
2015,10,05,01,04,6.80
2015,10,05,01,05,6.80
2015,10,05,01,06,6.80
2015,10,05,01,07,6.80
2015,10,05,01,08,6.80
2015,10,05,01,09,6.80
2015,10,05,01,10,6.80
2015,10,05,01,11,6.80
2015,10,05,01,12,6.80
2015,10,05,01,13,6.80
2015,10,05,01,14,6.80
2015,10,05,01,15,6.80
2015,10,05,01,16,6.80
2015,10,05,01,17,6.80
2015,10,05,01,18,6.80
2015,10,05,01,19,6.80
2015,10,05,01,20,6.80
2015,10,05,01,21,6.80
2015,10,05,01,22,6.70
2015,10,05,01,23,6.70
2015,10,05,01,24,6.70
2015,10,05,01,25,6.70
2015,10,05,01,26,6.70
2015,10,05,01,27,6.70
2015,10,05,01,28,6.70
2015,10,05,01,29,6.70
2015,10,05,01,30,6.70
2015,10,05,01,31,6.70
2015,10,05,01,32,6.70
2015,10,05,01,33,6.70
2015,10,05,01,34,6.70
2015,10,05,01,35,6.70
2015,10,05,01,36,6.70
2015,10,05,01,37,6.70
2015,10,05,01,38,6.70
2015,10,05,01,39,6.70
2015,10,05,01,40,6.60
2015,10,05,01,41,6.60
2015,10,05,01,42,6.60
2015,10,05,01,43,6.60
2015,10,05,01,44,6.60
2015,10,05,01,45,6.60
2015,10,05,01,46,6.60
2015,10,05,01,47,6.60
2015,10,05,01,48,6.60
2015,10,05,01,49,6.60
2015,10,05,01,50,6.60
2015,10,05,01,51,6.60
2015,10,05,01,52,6.60
2015,10,05,01,53,6.60
2015,10,05,01,54,6.60
2015,10,05,01,55,6.60
2015,10,05,01,56,6.60
2015,10,05,01,57,6.60
2015,10,05,01,58,6.50
2015,10,05,01,59,6.50
2015,10,05,02,00,6.50
2015,10,05,02,01,6.50
2015,10,05,02,02,6.40
2015,10,05,02,03,6.40
2015,10,05,02,04,6.40
2015,10,05,02,05,6.40
2015,10,05,02,06,6.40
2015,10,05,02,07,6.40
2015,10,05,02,08,6.40
2015,10,05,02,09,6.40
2015,10,05,02,10,6.40
2015,10,05,02,11,6.40
2015,10,05,02,12,6.40
2015,10,05,02,13,6.40
2015,10,05,02,14,6.40
2015,10,05,02,15,6.40
2015,10,05,02,16,6.40
2015,10,05,02,17,6.40
2015,10,05,02,18,6.40
2015,10,05,02,19,6.40
2015,10,05,02,20,6.40
2015,10,05,02,21,6.40
2015,10,05,02,22,6.40
2015,10,05,02,23,6.40
2015,10,05,02,24,6.30
2015,10,05,02,25,6.30
2015,10,05,02,26,6.30
2015,10,05,02,27,6.30
2015,10,05,02,28,6.30
2015,10,05,02,29,6.30
2015,10,05,02,30,6.30
2015,10,05,02,31,6.30
2015,10,05,02,32,6.30
2015,10,05,02,33,6.30
2015,10,05,02,34,6.30
2015,10,05,02,35,6.30
2015,10,05,02,36,6.40
2015,10,05,02,37,6.40
2015,10,05,02,38,6.40
2015,10,05,02,39,6.40
2015,10,05,02,40,6.40
2015,10,05,02,41,6.40
2015,10,05,02,42,6.40
2015,10,05,02,43,6.40
2015,10,05,02,44,6.40
2015,10,05,02,45,6.30
2015,10,05,02,46,6.30
2015,10,05,02,47,6.30
2015,10,05,02,48,6.30
2015,10,05,02,49,6.30
2015,10,05,02,50,6.20
2015,10,05,02,51,6.20
2015,10,05,02,52,6.20
2015,10,05,02,53,6.20
2015,10,05,02,54,6.20
2015,10,05,02,55,6.20
2015,10,05,02,56,6.20
2015,10,05,02,57,6.10
2015,10,05,02,58,6.10
2015,10,05,02,59,6.10
2015,10,05,03,00,6.10
2015,10,05,03,01,6.10
2015,10,05,03,02,6.10
2015,10,05,03,03,6.00
2015,10,05,03,04,6.00
2015,10,05,03,05,6.00
2015,10,05,03,06,6.00
2015,10,05,03,07,6.00
2015,10,05,03,08,6.00
2015,10,05,03,09,6.00
2015,10,05,03,10,6.00
2015,10,05,03,11,6.00
2015,10,05,03,12,6.00
2015,10,05,03,13,5.90
2015,10,05,03,14,5.90
2015,10,05,03,15,5.90
2015,10,05,03,16,5.90
2015,10,05,03,17,5.90
2015,10,05,03,18,5.90
2015,10,05,03,19,5.90
2015,10,05,03,20,5.90
2015,10,05,03,21,5.80
2015,10,05,03,22,5.80
2015,10,05,03,23,5.80
2015,10,05,03,24,5.80
2015,10,05,03,25,5.80
2015,10,05,03,26,5.80
2015,10,05,03,27,5.80
2015,10,05,03,28,5.80
2015,10,05,03,29,5.80
2015,10,05,03,30,5.80
2015,10,05,03,31,5.80
2015,10,05,03,32,5.70
2015,10,05,03,33,5.70
2015,10,05,03,34,5.70
2015,10,05,03,35,5.70
2015,10,05,03,36,5.70
2015,10,05,03,37,5.70
2015,10,05,03,38,5.70
2015,10,05,03,39,5.70
2015,10,05,03,40,5.70
2015,10,05,03,41,5.70
2015,10,05,03,42,5.70
2015,10,05,03,43,5.70
2015,10,05,03,44,5.70
2015,10,05,03,45,5.70
2015,10,05,03,46,5.70
2015,10,05,03,47,5.70
2015,10,05,03,48,5.70
2015,10,05,03,49,5.70
2015,10,05,03,50,5.60
2015,10,05,03,51,5.70
2015,10,05,03,52,5.70
2015,10,05,03,53,5.70
2015,10,05,03,54,5.70
2015,10,05,03,55,5.70
2015,10,05,03,56,5.70
2015,10,05,03,57,5.70
2015,10,05,03,58,5.70
2015,10,05,03,59,5.70
2015,10,05,04,00,5.70
2015,10,05,04,01,5.70
2015,10,05,04,02,5.70
2015,10,05,04,03,5.70
2015,10,05,04,04,5.70
2015,10,05,04,05,5.70
2015,10,05,04,06,5.60
2015,10,05,04,07,5.60
2015,10,05,04,08,5.60
2015,10,05,04,09,5.60
2015,10,05,04,10,5.60
2015,10,05,04,11,5.60
2015,10,05,04,12,5.60
2015,10,05,04,13,5.60
2015,10,05,04,14,5.60
2015,10,05,04,15,5.60
2015,10,05,04,16,5.60
2015,10,05,04,17,5.60
2015,10,05,04,18,5.60
2015,10,05,04,19,5.60
2015,10,05,04,20,5.50
2015,10,05,04,21,5.50
2015,10,05,04,22,5.50
2015,10,05,04,23,5.50
2015,10,05,04,24,5.50
2015,10,05,04,25,5.40
2015,10,05,04,26,5.40
2015,10,05,04,27,5.40
2015,10,05,04,28,5.40
2015,10,05,04,29,5.40
2015,10,05,04,30,5.50
2015,10,05,04,31,5.40
2015,10,05,04,32,5.40
2015,10,05,04,33,5.40
2015,10,05,04,34,5.40
2015,10,05,04,35,5.40
2015,10,05,04,36,5.40
2015,10,05,04,37,5.40
2015,10,05,04,38,5.40
2015,10,05,04,39,5.40
2015,10,05,04,40,5.40
2015,10,05,04,41,5.40
2015,10,05,04,42,5.40
2015,10,05,04,43,5.40
2015,10,05,04,44,5.30
2015,10,05,04,45,5.30
2015,10,05,04,46,5.30
2015,10,05,04,47,5.30
2015,10,05,04,48,5.30
2015,10,05,04,49,5.30
2015,10,05,04,50,5.30
2015,10,05,04,51,5.30
2015,10,05,04,52,5.30
2015,10,05,04,53,5.30
2015,10,05,04,54,5.30
2015,10,05,04,55,5.30
2015,10,05,04,56,5.30
2015,10,05,04,57,5.20
2015,10,05,04,58,5.20
2015,10,05,04,59,5.20
2015,10,05,05,00,5.20
2015,10,05,05,01,5.20
2015,10,05,05,02,5.20
2015,10,05,05,03,5.20
2015,10,05,05,04,5.20
2015,10,05,05,05,5.20
2015,10,05,05,06,5.20
2015,10,05,05,07,5.20
2015,10,05,05,08,5.20
2015,10,05,05,09,5.20
2015,10,05,05,10,5.20
2015,10,05,05,11,5.20
2015,10,05,05,12,5.20
2015,10,05,05,13,5.20
2015,10,05,05,14,5.20
2015,10,05,05,15,5.10
2015,10,05,05,16,5.10
2015,10,05,05,17,5.10
2015,10,05,05,18,5.10
2015,10,05,05,19,5.10
2015,10,05,05,20,5.10
2015,10,05,05,21,5.10
2015,10,05,05,22,5.10
2015,10,05,05,23,5.10
2015,10,05,05,24,5.10
2015,10,05,05,25,5.00
2015,10,05,05,26,5.00
2015,10,05,05,27,5.00
2015,10,05,05,28,5.00
2015,10,05,05,29,5.00
2015,10,05,05,30,5.00
2015,10,05,05,31,5.00
2015,10,05,05,32,5.00
2015,10,05,05,33,5.00
2015,10,05,05,34,4.90
2015,10,05,05,35,4.90
2015,10,05,05,36,4.90
2015,10,05,05,37,4.90
2015,10,05,05,38,4.90
2015,10,05,05,39,4.90
2015,10,05,05,40,4.90
2015,10,05,05,41,4.90
2015,10,05,05,42,4.90
2015,10,05,05,43,4.90
2015,10,05,05,44,4.90
2015,10,05,05,45,4.90
2015,10,05,05,46,4.90
2015,10,05,05,47,4.80
2015,10,05,05,48,4.80
2015,10,05,05,49,4.80
2015,10,05,05,50,4.80
2015,10,05,05,51,4.80
2015,10,05,05,52,4.80
2015,10,05,05,53,4.80
2015,10,05,05,54,4.80
2015,10,05,05,55,4.80
2015,10,05,05,56,4.80
2015,10,05,05,57,4.80
2015,10,05,05,58,4.80
2015,10,05,05,59,4.80
2015,10,05,06,00,4.80
2015,10,05,06,01,4.80
2015,10,05,06,02,4.80
2015,10,05,06,03,4.90
2015,10,05,06,04,4.90
2015,10,05,06,05,4.90
2015,10,05,06,06,4.90
2015,10,05,06,07,4.90
2015,10,05,06,08,5.00
2015,10,05,06,09,5.00
2015,10,05,06,10,5.00
2015,10,05,06,11,5.00
2015,10,05,06,12,5.00
2015,10,05,06,13,5.00
2015,10,05,06,14,5.00
2015,10,05,06,15,5.00
2015,10,05,06,16,5.00
2015,10,05,06,17,4.90
2015,10,05,06,18,4.90
2015,10,05,06,19,4.90
2015,10,05,06,20,4.90
2015,10,05,06,21,4.90
2015,10,05,06,22,4.90
2015,10,05,06,23,4.80
2015,10,05,06,24,4.80
2015,10,05,06,25,4.80
2015,10,05,06,26,4.80
2015,10,05,06,27,4.80
2015,10,05,06,28,4.80
2015,10,05,06,29,4.80
2015,10,05,06,30,4.80
2015,10,05,06,31,4.80
2015,10,05,06,32,4.80
2015,10,05,06,33,4.80
2015,10,05,06,34,4.80
2015,10,05,06,35,4.80
2015,10,05,06,36,4.80
2015,10,05,06,37,4.80
2015,10,05,06,38,4.80
2015,10,05,06,39,4.80
2015,10,05,06,40,4.80
2015,10,05,06,41,4.80
2015,10,05,06,42,4.80
2015,10,05,06,43,4.90
2015,10,05,06,44,4.90
2015,10,05,06,45,4.90
2015,10,05,06,46,4.90
2015,10,05,06,47,4.90
2015,10,05,06,48,4.90
2015,10,05,06,49,4.90
2015,10,05,06,50,4.90
2015,10,05,06,51,4.90
2015,10,05,06,52,4.90
2015,10,05,06,53,4.90
2015,10,05,06,54,4.90
2015,10,05,06,55,4.90
2015,10,05,06,56,4.80
2015,10,05,06,57,4.80
2015,10,05,06,58,4.80
2015,10,05,06,59,4.80
2015,10,05,07,00,4.80
2015,10,05,07,01,4.80
2015,10,05,07,02,4.80
2015,10,05,07,03,4.80
2015,10,05,07,04,4.80
2015,10,05,07,05,4.80
2015,10,05,07,06,4.80
2015,10,05,07,07,4.90
2015,10,05,07,08,4.90
2015,10,05,07,09,4.90
2015,10,05,07,10,4.90
2015,10,05,07,11,4.90
2015,10,05,07,12,4.90
2015,10,05,07,13,4.90
2015,10,05,07,14,4.90
2015,10,05,07,15,4.90
2015,10,05,07,16,4.90
2015,10,05,07,17,4.90
2015,10,05,07,18,4.80
2015,10,05,07,19,4.80
2015,10,05,07,20,4.80
2015,10,05,07,21,4.80
2015,10,05,07,22,4.80
2015,10,05,07,23,4.80
2015,10,05,07,24,4.80
2015,10,05,07,25,4.80
2015,10,05,07,26,4.80
2015,10,05,07,27,4.80
2015,10,05,07,28,4.80
2015,10,05,07,29,4.80
2015,10,05,07,30,4.80
2015,10,05,07,31,4.80
2015,10,05,07,32,4.90
2015,10,05,07,33,4.90
2015,10,05,07,34,4.90
2015,10,05,07,35,4.90
2015,10,05,07,36,4.90
2015,10,05,07,37,5.00
2015,10,05,07,38,5.00
2015,10,05,07,39,5.00
2015,10,05,07,40,5.00
2015,10,05,07,41,5.00
2015,10,05,07,42,5.00
2015,10,05,07,43,5.00
2015,10,05,07,44,5.00
2015,10,05,07,45,5.00
2015,10,05,07,46,5.00
2015,10,05,07,47,5.00
2015,10,05,07,48,5.00
2015,10,05,07,49,5.00
2015,10,05,07,50,5.10
2015,10,05,07,51,5.10
2015,10,05,07,52,5.10
2015,10,05,07,53,5.10
2015,10,05,07,54,5.10
2015,10,05,07,55,5.10
2015,10,05,07,56,5.10
2015,10,05,07,57,5.10
2015,10,05,07,58,5.10
2015,10,05,07,59,5.10
2015,10,05,08,00,5.10
2015,10,05,08,01,5.10
2015,10,05,08,02,5.10
2015,10,05,08,03,5.10
2015,10,05,08,04,5.10
2015,10,05,08,05,5.10
2015,10,05,08,06,5.20
2015,10,05,08,07,5.20
2015,10,05,08,08,5.20
2015,10,05,08,09,5.20
2015,10,05,08,10,5.20
2015,10,05,08,11,5.20
2015,10,05,08,12,5.20
2015,10,05,08,13,5.30
2015,10,05,08,14,5.30
2015,10,05,08,15,5.30
2015,10,05,08,16,5.30
2015,10,05,08,17,5.30
2015,10,05,08,18,5.30
2015,10,05,08,19,5.40
2015,10,05,08,20,5.40
2015,10,05,08,21,5.40
2015,10,05,08,22,5.50
2015,10,05,08,23,5.50
2015,10,05,08,24,5.50
2015,10,05,08,25,5.50
2015,10,05,08,26,5.60
2015,10,05,08,27,5.60
2015,10,05,08,28,5.70
2015,10,05,08,29,5.70
2015,10,05,08,30,5.70
2015,10,05,08,31,5.70
2015,10,05,08,32,5.80
2015,10,05,08,33,5.80
2015,10,05,08,34,5.80
2015,10,05,08,35,5.80
2015,10,05,08,36,5.80
2015,10,05,08,37,5.80
2015,10,05,08,38,5.80
2015,10,05,08,39,5.80
2015,10,05,08,40,5.80
2015,10,05,08,41,5.80
2015,10,05,08,42,5.90
2015,10,05,08,43,5.90
2015,10,05,08,44,5.90
2015,10,05,08,45,5.90
2015,10,05,08,46,5.90
2015,10,05,08,47,6.00
2015,10,05,08,48,6.00
2015,10,05,08,49,6.10
2015,10,05,08,50,6.10
2015,10,05,08,51,6.20
2015,10,05,08,52,6.20
2015,10,05,08,53,6.20
2015,10,05,08,54,6.20
2015,10,05,08,55,6.30
2015,10,05,08,56,6.30
2015,10,05,08,57,6.40
2015,10,05,08,58,6.40
2015,10,05,08,59,6.40
2015,10,05,09,00,6.50
2015,10,05,09,01,6.50
2015,10,05,09,02,6.60
2015,10,05,09,03,6.60
2015,10,05,09,04,6.70
2015,10,05,09,05,6.80
2015,10,05,09,06,6.80
2015,10,05,09,07,6.90
2015,10,05,09,08,6.90
2015,10,05,09,09,7.00
2015,10,05,09,10,7.10
2015,10,05,09,11,7.10
2015,10,05,09,12,7.20
2015,10,05,09,13,7.30
2015,10,05,09,14,7.30
2015,10,05,09,15,7.40
2015,10,05,09,16,7.50
2015,10,05,09,17,7.60
2015,10,05,09,18,7.60
2015,10,05,09,19,7.70
2015,10,05,09,20,7.80
2015,10,05,09,21,7.90
2015,10,05,09,22,8.00
2015,10,05,09,23,8.10
2015,10,05,09,24,8.20
2015,10,05,09,25,8.30
2015,10,05,09,26,8.40
2015,10,05,09,27,8.50
2015,10,05,09,28,8.60
2015,10,05,09,29,8.70
2015,10,05,09,30,8.80
2015,10,05,09,31,8.90
2015,10,05,09,32,9.00
2015,10,05,09,33,9.10
2015,10,05,09,34,9.10
2015,10,05,09,35,9.20
2015,10,05,09,36,9.30
2015,10,05,09,37,9.30
2015,10,05,09,38,9.40
2015,10,05,09,39,9.40
2015,10,05,09,40,9.50
2015,10,05,09,41,9.50
2015,10,05,09,42,9.60
2015,10,05,09,43,9.60
2015,10,05,09,44,9.70
2015,10,05,09,45,9.80
2015,10,05,09,46,9.80
2015,10,05,09,47,9.90
2015,10,05,09,48,9.90
2015,10,05,09,49,10.00
2015,10,05,09,50,10.00
2015,10,05,09,51,10.10
2015,10,05,09,52,10.20
2015,10,05,09,53,10.20
2015,10,05,09,54,10.30
2015,10,05,09,55,10.40
2015,10,05,09,56,10.50
2015,10,05,09,57,10.50
2015,10,05,09,58,10.60
2015,10,05,09,59,10.70
2015,10,05,10,00,10.70
2015,10,05,10,01,10.80
2015,10,05,10,02,10.80
2015,10,05,10,03,10.90
2015,10,05,10,04,11.00
2015,10,05,10,05,11.00
2015,10,05,10,06,11.10
2015,10,05,10,07,11.20
2015,10,05,10,08,11.20
2015,10,05,10,09,11.30
2015,10,05,10,10,11.30
2015,10,05,10,11,11.40
2015,10,05,10,12,11.50
2015,10,05,10,13,11.60
2015,10,05,10,14,11.60
2015,10,05,10,15,11.70
2015,10,05,10,16,11.80
2015,10,05,10,17,11.80
2015,10,05,10,18,11.90
2015,10,05,10,19,12.00
2015,10,05,10,20,12.00
2015,10,05,10,21,12.10
2015,10,05,10,22,12.20
2015,10,05,10,23,12.20
2015,10,05,10,24,12.30
2015,10,05,10,25,12.40
2015,10,05,10,26,12.40
2015,10,05,10,27,12.50
2015,10,05,10,28,12.60
2015,10,05,10,29,12.60
2015,10,05,10,30,12.70
2015,10,05,10,31,12.70
2015,10,05,10,32,12.80
2015,10,05,10,33,12.80
2015,10,05,10,34,12.90
2015,10,05,10,35,12.90
2015,10,05,10,36,13.00
2015,10,05,10,37,13.10
2015,10,05,10,38,13.10
2015,10,05,10,39,13.20
2015,10,05,10,40,13.30
2015,10,05,10,41,13.30
2015,10,05,10,42,13.40
2015,10,05,10,43,13.40
2015,10,05,10,44,13.50
2015,10,05,10,45,13.60
2015,10,05,10,46,13.70
2015,10,05,10,47,13.70
2015,10,05,10,48,13.80
2015,10,05,10,49,13.80
2015,10,05,10,50,13.90
2015,10,05,10,51,13.90
2015,10,05,10,52,13.90
2015,10,05,10,53,13.90
2015,10,05,10,54,13.90
2015,10,05,10,55,14.00
2015,10,05,10,56,14.00
2015,10,05,10,57,14.10
2015,10,05,10,58,14.20
2015,10,05,10,59,14.20
2015,10,05,11,00,14.20
2015,10,05,11,01,14.20
2015,10,05,11,02,14.20
2015,10,05,11,03,14.20
2015,10,05,11,04,14.30
2015,10,05,11,05,14.30
2015,10,05,11,06,14.30
2015,10,05,11,07,14.30
2015,10,05,11,08,14.30
2015,10,05,11,09,14.40
2015,10,05,11,10,14.40
2015,10,05,11,11,14.40
2015,10,05,11,12,14.50
2015,10,05,11,13,14.50
2015,10,05,11,14,14.60
2015,10,05,11,15,14.60
2015,10,05,11,16,14.70
2015,10,05,11,17,14.70
2015,10,05,11,18,14.70
2015,10,05,11,19,14.70
2015,10,05,11,20,14.70
2015,10,05,11,21,14.70
2015,10,05,11,22,14.70
2015,10,05,11,23,14.70
2015,10,05,11,24,14.80
2015,10,05,11,25,14.80
2015,10,05,11,26,14.80
2015,10,05,11,27,14.90
2015,10,05,11,28,14.90
2015,10,05,11,29,14.90
2015,10,05,11,30,14.90
2015,10,05,11,31,14.90
2015,10,05,11,32,14.90
2015,10,05,11,33,15.00
2015,10,05,11,34,15.00
2015,10,05,11,35,15.10
2015,10,05,11,36,15.10
2015,10,05,11,37,15.10
2015,10,05,11,38,15.10
2015,10,05,11,39,15.20
2015,10,05,11,40,15.20
2015,10,05,11,41,15.20
2015,10,05,11,42,15.20
2015,10,05,11,43,15.30
2015,10,05,11,44,15.30
2015,10,05,11,45,15.30
2015,10,05,11,46,15.40
2015,10,05,11,47,15.50
2015,10,05,11,48,15.50
2015,10,05,11,49,15.60
2015,10,05,11,50,15.70
2015,10,05,11,51,15.80
2015,10,05,11,52,15.80
2015,10,05,11,53,15.90
2015,10,05,11,54,15.90
2015,10,05,11,55,15.90
2015,10,05,11,56,15.90
2015,10,05,11,57,15.90
2015,10,05,11,58,15.90
2015,10,05,11,59,15.90
2015,10,05,12,00,15.90
2015,10,05,12,01,16.00
2015,10,05,12,02,16.00
2015,10,05,12,03,16.00
2015,10,05,12,04,16.00
2015,10,05,12,05,16.00
2015,10,05,12,06,16.10
2015,10,05,12,07,16.20
2015,10,05,12,08,16.20
2015,10,05,12,09,16.20
2015,10,05,12,10,16.10
2015,10,05,12,11,16.10
2015,10,05,12,12,16.10
2015,10,05,12,13,16.00
2015,10,05,12,14,16.00
2015,10,05,12,15,15.90
2015,10,05,12,16,15.90
2015,10,05,12,17,15.90
2015,10,05,12,18,15.90
2015,10,05,12,19,15.90
2015,10,05,12,20,15.80
2015,10,05,12,21,15.80
2015,10,05,12,22,15.80
2015,10,05,12,23,15.80
2015,10,05,12,24,15.70
2015,10,05,12,25,15.70
2015,10,05,12,26,15.70
2015,10,05,12,27,15.60
2015,10,05,12,28,15.60
2015,10,05,12,29,15.60
2015,10,05,12,30,15.50
2015,10,05,12,31,15.50
2015,10,05,12,32,15.40
2015,10,05,12,33,15.40
2015,10,05,12,34,15.30
2015,10,05,12,35,15.20
2015,10,05,12,36,15.20
2015,10,05,12,37,15.20
2015,10,05,12,38,15.10
2015,10,05,12,39,15.10
2015,10,05,12,40,15.10
2015,10,05,12,41,15.10
2015,10,05,12,42,15.00
2015,10,05,12,43,15.00
2015,10,05,12,44,15.00
2015,10,05,12,45,15.00
2015,10,05,12,46,15.00
2015,10,05,12,47,15.00
2015,10,05,12,48,15.00
2015,10,05,12,49,15.00
2015,10,05,12,50,15.00
2015,10,05,12,51,15.00
2015,10,05,12,52,15.00
2015,10,05,12,53,15.00
2015,10,05,12,54,15.00
2015,10,05,12,55,15.10
2015,10,05,12,56,15.10
2015,10,05,12,57,15.20
2015,10,05,12,58,15.20
2015,10,05,12,59,15.30
2015,10,05,13,00,15.30
2015,10,05,13,01,15.30
2015,10,05,13,02,15.30
2015,10,05,13,03,15.40
2015,10,05,13,04,15.40
2015,10,05,13,05,15.40
2015,10,05,13,06,15.40
2015,10,05,13,07,15.40
2015,10,05,13,08,15.40
2015,10,05,13,09,15.40
2015,10,05,13,10,15.40
2015,10,05,13,11,15.40
2015,10,05,13,12,15.40
2015,10,05,13,13,15.50
2015,10,05,13,14,15.50
2015,10,05,13,15,15.60
2015,10,05,13,16,15.60
2015,10,05,13,17,15.60
2015,10,05,13,18,15.60
2015,10,05,13,19,15.60
2015,10,05,13,20,15.60
2015,10,05,13,21,15.60
2015,10,05,13,22,15.60
2015,10,05,13,23,15.60
2015,10,05,13,24,15.60
2015,10,05,13,25,15.60
2015,10,05,13,26,15.60
2015,10,05,13,27,15.60
2015,10,05,13,28,15.60
2015,10,05,13,29,15.60
2015,10,05,13,30,15.60
2015,10,05,13,31,15.60
2015,10,05,13,32,15.60
2015,10,05,13,33,15.60
2015,10,05,13,34,15.60
2015,10,05,13,35,15.60
2015,10,05,13,36,15.60
2015,10,05,13,37,15.60
2015,10,05,13,38,15.70
2015,10,05,13,39,15.70
2015,10,05,13,40,15.70
2015,10,05,13,41,15.70
2015,10,05,13,42,15.70
2015,10,05,13,43,15.70
2015,10,05,13,44,15.70
2015,10,05,13,45,15.80
2015,10,05,13,46,15.80
2015,10,05,13,47,15.80
2015,10,05,13,48,15.90
2015,10,05,13,49,15.90
2015,10,05,13,50,15.90
2015,10,05,13,51,16.00
2015,10,05,13,52,16.10
2015,10,05,13,53,16.10
2015,10,05,13,54,16.10
2015,10,05,13,55,16.20
2015,10,05,13,56,16.20
2015,10,05,13,57,16.20
2015,10,05,13,58,16.20
2015,10,05,13,59,16.20
2015,10,05,14,00,16.20
2015,10,05,14,01,16.20
2015,10,05,14,02,16.10
2015,10,05,14,03,16.10
2015,10,05,14,04,16.10
2015,10,05,14,05,16.10
2015,10,05,14,06,16.10
2015,10,05,14,07,16.10
2015,10,05,14,08,16.10
2015,10,05,14,09,16.20
2015,10,05,14,10,16.20
2015,10,05,14,11,16.20
2015,10,05,14,12,16.20
2015,10,05,14,13,16.10
2015,10,05,14,14,16.10
2015,10,05,14,15,16.10
2015,10,05,14,16,16.10
2015,10,05,14,17,16.20
2015,10,05,14,18,16.20
2015,10,05,14,19,16.30
2015,10,05,14,20,16.30
2015,10,05,14,21,16.40
2015,10,05,14,22,16.40
2015,10,05,14,23,16.50
2015,10,05,14,24,16.50
2015,10,05,14,25,16.50
2015,10,05,14,26,16.50
2015,10,05,14,27,16.40
2015,10,05,14,28,16.40
2015,10,05,14,29,16.30
2015,10,05,14,30,16.30
2015,10,05,14,31,16.30
2015,10,05,14,32,16.20
2015,10,05,14,33,16.20
2015,10,05,14,34,16.20
2015,10,05,14,35,16.20
2015,10,05,14,36,16.20
2015,10,05,14,37,16.20
2015,10,05,14,38,16.20
2015,10,05,14,39,16.10
2015,10,05,14,40,16.10
2015,10,05,14,41,16.00
2015,10,05,14,42,16.00
2015,10,05,14,43,15.90
2015,10,05,14,44,15.90
2015,10,05,14,45,15.80
2015,10,05,14,46,15.80
2015,10,05,14,47,15.70
2015,10,05,14,48,15.70
2015,10,05,14,49,15.70
2015,10,05,14,50,15.70
2015,10,05,14,51,15.70
2015,10,05,14,52,15.70
2015,10,05,14,53,15.70
2015,10,05,14,54,15.70
2015,10,05,14,55,15.60
2015,10,05,14,56,15.60
2015,10,05,14,57,15.50
2015,10,05,14,58,15.50
2015,10,05,14,59,15.50
2015,10,05,15,00,15.60
2015,10,05,15,01,15.60
2015,10,05,15,02,15.60
2015,10,05,15,03,15.60
2015,10,05,15,04,15.60
2015,10,05,15,05,15.60
2015,10,05,15,06,15.60
2015,10,05,15,07,15.60
2015,10,05,15,08,15.60
2015,10,05,15,09,15.50
2015,10,05,15,10,15.50
2015,10,05,15,11,15.50
2015,10,05,15,12,15.50
2015,10,05,15,13,15.50
2015,10,05,15,14,15.50
2015,10,05,15,15,15.50
2015,10,05,15,16,15.50
2015,10,05,15,17,15.50
2015,10,05,15,18,15.60
2015,10,05,15,19,15.60
2015,10,05,15,20,15.70
2015,10,05,15,21,15.70
2015,10,05,15,22,15.70
2015,10,05,15,23,15.80
2015,10,05,15,24,15.80
2015,10,05,15,25,15.80
2015,10,05,15,26,15.90
2015,10,05,15,27,15.90
2015,10,05,15,28,15.90
2015,10,05,15,29,16.00
2015,10,05,15,30,16.10
2015,10,05,15,31,16.10
2015,10,05,15,32,16.20
2015,10,05,15,33,16.20
2015,10,05,15,34,16.20
2015,10,05,15,35,16.30
2015,10,05,15,36,16.30
2015,10,05,15,37,16.30
2015,10,05,15,38,16.30
2015,10,05,15,39,16.30
2015,10,05,15,40,16.40
2015,10,05,15,41,16.40
2015,10,05,15,42,16.40
2015,10,05,15,43,16.40
2015,10,05,15,44,16.40
2015,10,05,15,45,16.40
2015,10,05,15,46,16.50
2015,10,05,15,47,16.50
2015,10,05,15,48,16.50
2015,10,05,15,49,16.60
2015,10,05,15,50,16.60
2015,10,05,15,51,16.60
2015,10,05,15,52,16.60
2015,10,05,15,53,16.70
2015,10,05,15,54,16.70
2015,10,05,15,55,16.70
2015,10,05,15,56,16.80
2015,10,05,15,57,16.80
2015,10,05,15,58,16.80
2015,10,05,15,59,16.90
2015,10,05,16,00,16.90
2015,10,05,16,01,17.00
2015,10,05,16,02,17.00
2015,10,05,16,03,17.10
2015,10,05,16,04,17.10
2015,10,05,16,05,17.20
2015,10,05,16,06,17.20
2015,10,05,16,07,17.30
2015,10,05,16,08,17.30
2015,10,05,16,09,17.40
2015,10,05,16,10,17.50
2015,10,05,16,11,17.50
2015,10,05,16,12,17.60
2015,10,05,16,13,17.70
2015,10,05,16,14,17.80
2015,10,05,16,15,17.80
2015,10,05,16,16,17.90
2015,10,05,16,17,18.00
2015,10,05,16,18,18.00
2015,10,05,16,19,18.00
2015,10,05,16,20,18.00
2015,10,05,16,21,17.90
2015,10,05,16,22,17.80
2015,10,05,16,23,17.70
2015,10,05,16,24,17.60
2015,10,05,16,25,17.50
2015,10,05,16,26,17.50
2015,10,05,16,27,17.40
2015,10,05,16,28,17.30
2015,10,05,16,29,17.30
2015,10,05,16,30,17.20
2015,10,05,16,31,17.20
2015,10,05,16,32,17.10
2015,10,05,16,33,17.00
2015,10,05,16,34,16.90
2015,10,05,16,35,16.90
2015,10,05,16,36,16.80
2015,10,05,16,37,16.80
2015,10,05,16,38,16.70
2015,10,05,16,39,16.70
2015,10,05,16,40,16.70
2015,10,05,16,41,16.70
2015,10,05,16,42,16.70
2015,10,05,16,43,16.60
2015,10,05,16,44,16.60
2015,10,05,16,45,16.60
2015,10,05,16,46,16.60
2015,10,05,16,47,16.60
2015,10,05,16,48,16.60
2015,10,05,16,49,16.60
2015,10,05,16,50,16.60
2015,10,05,16,51,16.60
2015,10,05,16,52,16.60
2015,10,05,16,53,16.60
2015,10,05,16,54,16.60
2015,10,05,16,55,16.60
2015,10,05,16,56,16.50
2015,10,05,16,57,16.50
2015,10,05,16,58,16.40
2015,10,05,16,59,16.40
2015,10,05,17,00,16.40
2015,10,05,17,01,16.40
2015,10,05,17,02,16.30
2015,10,05,17,03,16.30
2015,10,05,17,04,16.20
2015,10,05,17,05,16.20
2015,10,05,17,06,16.10
2015,10,05,17,07,16.10
2015,10,05,17,08,16.00
2015,10,05,17,09,16.00
2015,10,05,17,10,15.90
2015,10,05,17,11,15.90
2015,10,05,17,12,15.90
2015,10,05,17,13,15.80
2015,10,05,17,14,15.80
2015,10,05,17,15,15.80
2015,10,05,17,16,15.80
2015,10,05,17,17,15.70
2015,10,05,17,18,15.70
2015,10,05,17,19,15.70
2015,10,05,17,20,15.70
2015,10,05,17,21,15.60
2015,10,05,17,22,15.60
2015,10,05,17,23,15.60
2015,10,05,17,24,15.50
2015,10,05,17,25,15.50
2015,10,05,17,26,15.50
2015,10,05,17,27,15.50
2015,10,05,17,28,15.50
2015,10,05,17,29,15.40
2015,10,05,17,30,15.40
2015,10,05,17,31,15.40
2015,10,05,17,32,15.40
2015,10,05,17,33,15.40
2015,10,05,17,34,15.30
2015,10,05,17,35,15.30
2015,10,05,17,36,15.30
2015,10,05,17,37,15.30
2015,10,05,17,38,15.30
2015,10,05,17,39,15.30
2015,10,05,17,40,15.30
2015,10,05,17,41,15.30
2015,10,05,17,42,15.20
2015,10,05,17,43,15.30
2015,10,05,17,44,15.20
2015,10,05,17,45,15.20